Flag for Canada Weather past 2 weeks in Calgary, Alberta, Canada

Now
54 °F

Passing clouds.


Feels Like: 50 °F
Forecast: 54 / 67 °F
Wind: 10 mph from Southwest

Location: Calgary International

Current Time: Jul 24, 2014 at 5:55:02 AM

Latest Report: Jul 24, 2014 at 5:00 AM


Visibility: 15 mi

Pressure: 29.79 "Hg

Humidity: 88%

Dew point: 50 °F

Location of CalgaryLocation

Historic Weather in Calgary — Graph

°F

Calgary temperature yesterday

Maximum temperature yesterday: 79 °F (at 4:00 PM)
Minimum temperature yesterday: 54 °F (at 6:00 AM)
Average temperature yesterday: 68 °F

Past Weeks' High & Low Weather Summary

 TemperatureHumidityPressure
High88 °F (Jul 16, 2:00 PM)94% (Jul 20, 6:00 AM)30.28 "Hg (Jul 20, 6:00 AM)
Low48 °F (Jul 11, 5:00 AM)20% (Jul 9, 7:00 PM)29.55 "Hg (Jul 19, 7:00 PM)
Average66 °F61%29.97 "Hg
* Reported Jul 9 4:00 AM — Jul 24 4:00 AM, Calgary, Weather by CustomWeather, © 2014

Note: Actual official high and low records may vary slightly from our data, if they occured in-between our weather recording intervals... More about our weather records

Advertising

Calgary weather history for previous 24 hours

 ConditionsComfort  
Time TempWeatherWind HumidityBarometerVisibility
4:00 AM
Jul 24
55 °FPassing clouds.8 mph88%29.79 "Hg15 mi
3:00 AM55 °FClear.12 mph94%29.78 "Hg15 mi
2:00 AM57 °FPassing clouds.6 mph88%29.79 "Hg15 mi
1:00 AM59 °FPartly cloudy.6 mph82%29.83 "Hg15 mi
12:00 AM59 °FThunderstorms. Fog.12 mph82%29.83 "Hg6 mi
11:00 PM
Jul 23
61 °FThunderstorms. Fog.28 mph77%29.91 "Hg6 mi
10:47 PM70 °FThunderstorms. Partly cloudy.23 mph64%29.86 "Hg15 mi
10:00 PM68 °FPartly sunny.7 mph64%29.84 "Hg15 mi
9:00 PM72 °FPartly sunny.9 mph53%29.84 "Hg20 mi
8:00 PM75 °FPartly sunny.13 mph41%29.85 "Hg20 mi
7:00 PM77 °FPartly sunny.12 mph42%29.90 "Hg30 mi
6:00 PM73 °FPartly sunny.8 mph50%29.94 "Hg30 mi
5:00 PM79 °FPartly sunny.8 mph42%29.96 "Hg30 mi
4:00 PM79 °FPassing clouds.12 mph37%29.98 "Hg30 mi
3:00 PM77 °FPassing clouds.8 mph42%30.00 "Hg40 mi
2:00 PM75 °FScattered clouds.6 mph41%30.02 "Hg40 mi
1:00 PM72 °FBroken clouds.7 mph50%30.03 "Hg40 mi
12:00 PM72 °FPartly sunny.5 mph47%30.05 "Hg40 mi
11:00 AM70 °FPartly sunny.5 mph50%30.06 "Hg40 mi
10:00 AM70 °FPartly sunny.5 mph46%30.06 "Hg40 mi
9:00 AM68 °FPartly sunny.2 mph43%30.06 "Hg40 mi
8:00 AM64 °FBroken clouds.2 mph56%30.08 "Hg40 mi
7:00 AM55 °FScattered clouds.2 mph72%30.11 "Hg40 mi
6:00 AM54 °FPassing clouds.8 mph77%30.09 "Hg40 mi
5:00 AM55 °FPassing clouds.10 mph72%30.09 "Hg15 mi
Weather by CustomWeather, © 2014

See weather overviewHow to use our weather pages